Flag Weather past 2 weeks in Santa Clara, Cuba

Now
75 °F

Passing clouds.


Feels Like: 77 °F
Forecast: 62 / 75 °F
Wind: 14 mph from Northeast

Location: Cienfuegos - Las Villas

Current Time: Nov 28, 2014 at 10:16:17 AM

Latest Report: Nov 28, 2014 at 9:51 AM


Visibility: N/A

Pressure: 30.15 "Hg

Humidity: 69%

Dew point: 64 °F

Location of Santa ClaraLocation

Historic Weather in Santa Clara — Graph

°F

Santa Clara temperature yesterday

Maximum temperature yesterday: 77 °F (at 12:51 PM)
Minimum temperature yesterday: 64 °F (at 10:58 PM)
Average temperature yesterday: 72 °F

Past Weeks' High & Low Weather Summary

 TemperatureHumidityPressure
High91 °F (Nov 18, 11:51 AM)100% (Nov 13, 11:58 PM)30.15 "Hg (Nov 13, 11:58 PM)
Low61 °F (Nov 28, 5:58 AM)49% (Nov 13, 1:58 PM)29.89 "Hg (Nov 13, 2:51 PM)
Average77 °F84%30.03 "Hg
* Reported Nov 13 8:50 AM — Nov 28 8:53 AM, Santa Clara, Weather by CustomWeather, © 2014

Note: Actual official high and low records may vary slightly from our data, if they occured in-between our weather recording intervals... More about our weather records

Advertising

Santa Clara weather history for previous 24 hours

 ConditionsComfort  
Time TempWeatherWind HumidityBarometerVisibility
8:53 AM
Nov 28
70 °FPassing clouds.9 mph78%30.15 "HgN/A
7:50 AM64 °FPassing clouds.8 mph88%30.12 "HgN/A
6:58 AM61 °FCool.7 mph94%30.12 "HgN/A
5:58 AM61 °FCool.8 mph94%30.09 "HgN/A
4:58 AM63 °FMild.8 mph94%30.09 "HgN/A
3:58 AM63 °FMild.8 mph94%30.09 "HgN/A
2:57 AM64 °FMild.8 mph88%30.09 "HgN/A
1:58 AM64 °FMild.8 mph88%30.09 "HgN/A
12:57 AM64 °FMild.8 mph88%30.12 "HgN/A
11:57 PM
Nov 27
64 °FMild.8 mph94%30.12 "HgN/A
10:58 PM64 °FMild.7 mph94%30.12 "HgN/A
9:57 PM66 °FMild.7 mph88%30.12 "HgN/A
8:57 PM68 °FMild.10 mph83%30.12 "HgN/A
7:58 PM68 °FMild.8 mph88%30.12 "HgN/A
6:58 PM72 °FMild.10 mph78%30.12 "HgN/A
5:58 PM72 °FMild.13 mph78%30.09 "HgN/A
4:58 PM73 °FMild.16 mph74%30.09 "HgN/A
3:50 PM73 °FPartly sunny.14 mph78%30.09 "HgN/A
2:50 PM73 °FBroken clouds.17 mph78%30.09 "HgN/A
1:50 PM75 °FPartly sunny.14 mph69%30.09 "HgN/A
12:51 PM77 °FPartly sunny.14 mph69%30.09 "HgN/A
11:50 AM75 °FPartly sunny.14 mph78%30.12 "HgN/A
10:51 AM75 °FPartly sunny.13 mph83%30.15 "Hg6 mi
Weather by CustomWeather, © 2014

See weather overviewHow to use our weather pages